星链-3054 (STARLINK-3054 )

导读 | 星芒AI

STARLINK-3054 是 SpaceX Starlink 项目中的一颗低轨通信卫星,属于第 30 批发射的 Starlink 卫星群。该卫星设计用于提供全球宽带互联网服务,主要面向网络基础设施薄弱的地区。它运行在约 550 公里的轨道高度,配备先进的相控阵天线和激光通信系统,以实现高速、低延迟的数据传输。STARLINK-3054 于 2023 年由猎鹰 9 号火箭成功送入太空,是 SpaceX 扩展其全球卫星互联网网络计划的一部分。

基本信息
目录编号:
49167
目录名称:
STARLINK-3054
国际标识:
2021-082AP
轨道中心:
EARTH
卫星名称:
星链-3054
卫星全名:
星链-3054 (STARLINK-3054 )
卫星状态:
在轨 (已飞行1507 天)
发射日期:
2021-09-14 UTC
国别 :
美国 (US)
星等 :
--
轨道信息
数据来源 国际轨道数据
星历时间: 2025-10-30T14:45:36+0800
15小时前
查看轨道信息
半长轴: 6950.21km
偏心率: 0.000278
轨道倾角: 69.999°
近地点辐角 270.679°
升交点赤经 263.250°
平近点角 89.405°
近地点: 570.142km
远地点: 574.008km
周期: 96.107分钟
每日圈数: 14.983246
详细信息
固有亮度:
5
最大亮度:
2.5
卫星平台:
Starlink v1.5
覆盖范围:
全球
运营商:
太空探索技术公司
运营商所在国:
美国
制造商(研发单位):
太空探索技术公司
制造商所在国:
美国
使用方式:
暂无
卫星简介
星链(Starlink)计划是由太空探索技术公司(SpaceX)提出的一个巨型低轨卫星互联网星座项目,计划在2019年至2024年间在太空搭建由约1.2万颗卫星组成的“星链”网络,其中1584颗将部署在地球上空550千米处的近地轨道,并从2020年开始工作。该卫星仍在工作。
2D轨道图
3D轨道图
轨道高度分析图
轨道倾角分析图
轨道综合分析图
查看轨道综合分析图